Location: Klein M�hlingen
(51.9472°N, 11.7453°E)
Time: 01:25:46
(UTC+00:00)

CZ-4C R/B - Pass Details

Date: 09 April 2020
Orbit: 637 x 1365 km, 63.4° (Epoch: 03 June)

Event Time Altitude Azimuth Distance (km) Brightness Sun altitude
Rises 19:00:46 0° 306° (NW) 3,561 7.5 -9.4°
Reaches altitude 10° 19:03:18 10° 314° (NW) 2,724 6.2 -9.8°
Maximum altitude 19:09:25 40° 23° (NNE) 1,574 3.6 -10.6°
Drops below altitude 10° 19:16:34 10° 91° (E) 3,203 4.7 -11.6°
Enters shadow 19:16:37 10° 92° (E) 3,220 4.7 -11.6°
